www.pogodaiklimat.ru

Погода и климат >> Архив погоды >> Россия >> Мурманская область >> Апатиты


ПОГОДА в Апатитах

  • Прогноз погоды в Апатитах
  • Монитор погоды в Апатитах

АРХИВ ПОГОДЫ в Апатитах

Время (UTC), дата Ветер
(напр.,м/с)
 
Видим.   Явления Облачность Т
(С)
Тd
(С)
f
(%)
Тe
(С)
Тes
(С)
Комфортность P
(гПа)
Po
(гПа)
Тmin
(С)
Tmax
(С)
R
(мм)
R24
(мм)
S
(см)
00 10.01 штиль 0 50 км {снег} 3/1 600 м
[Sc Ci fib]
-30.3 -33.3 75 -30 -30 1018.4 999.4
06 10.01 штиль 0 20 км 3/1 600 м
[Sc Ci fib]
-31.5 -34.8 72 -32 -32 опасность
обморожения
1015.4 996.4 -33.0 0.0 38
12 10.01 В 3 20 км 9/3 600 м
[Sc Cs]
-16.3 -18.0 87 -23 -23 1007.2 989.4
18 10.01 В 5 2000 м снег {метель} 10/10 200 м
[Frnb Ns]
-12.3 -13.6 90 -20 -20 992.8 975.6 -12.2 1
00 11.01 В 5 4000 м слаб. снег {метель} 10/10 300 м
[Frnb Ns]
-8.0 -9.2 91 -16 -16 979.7 963.0
06 11.01 В 3 4000 м слаб. ливневой снег 10/10 300 м
[Cb cap]
-7.3 -8.3 93 -13 -13 972.5 955.9 -12.2 11 45
12 11.01 В 4 20 км слаб. крупа 10/8 300 м
[Cb cap Ac As]
-4.2 -4.9 95 -11 -11 968.5 952.2
18 11.01 штиль 0 4000 м слаб. ливневой снег 10/10 300 м
[Cb cap]
-4.0 -4.4 97 -5 -5 969.0 952.7 -3.4 0.4
00 12.01 штиль 0 4000 м слаб. ливневой снег 10/10 300 м
[Cb cap]
-5.4 -5.8 97 -7 -7 968.7 952.3
06 12.01 СВ 1 20 км в посл. час ливневой снег 8/4 300 м
[Cb cap Ac As Ci fib]
-8.3 -8.9 95 -11 -11 971.7 955.1 -8.8 0.8 45
12 12.01 штиль 0 4000 м слаб. ливневой снег 9/8 300 м
[Cb cap Ac As]
-7.0 -7.8 94 -8 -8 973.8 957.2
18 12.01 С 2 4000 м слаб. ливневой снег 8/4 600 м
[Cb cap Ac trans]
-6.9 -7.4 96 -11 -11 974.1 957.5 -4.2 3
00 13.01 СВ 1 4000 м слаб. ливневой снег {метель} 10/8 300 м
[Cb cap Ac As]
-10.6 -11.5 93 -13 -13 974.9 958.1
06 13.01 штиль 0 4000 м слаб. ливневой снег {туман} 9/6 300 м
[Cb cap Ac trans Ci fib]
-9.9 -10.8 93 -10 -10 974.9 958.1 -12.0 0.0 48
12 13.01 штиль 0 4000 м слаб. ливневой снег 9/8 300 м
[Cb cap Ac trans Ci fib]
-7.5 -8.1 95 -8 -8 975.0 958.4
18 13.01 В 1 4000 м слаб. ливневой снег 9/8 300 м
[Cb cap Ac As]
-8.1 -8.8 95 -11 -11 976.3 959.6 -5.1 0.8
00 14.01 СВ 1 4000 м слаб. ливневой снег 10/10 300 м
[Cb cap]
-6.4 -6.9 96 -9 -9 978.4 961.8
06 14.01 В 1 2000 м в посл. час туман {ливн. осадки} 10/10 200 м
[St]
-9.8 -10.6 94 -12 -12 981.5 964.6 -9.8 0.2 47
09 14.01 В 1 2000 м в посл. час туман {ливн. осадки} 10/10 200 м
[St]
-9.8 -10.6 94 -12 -12 981.5 964.6 -9.8 0.2
12 14.01 В 1 10 км слаб. ливневой снег 9/8 600 м
[Cb cap Ac trans]
-9.8 -10.7 93 -12 -12 985.3 968.4
18 14.01 В 1 1000 м слаб. ливневой снег 9/8 300 м
[Cb cap Ac trans]
-9.6 -10.5 93 -12 -12 988.9 971.9 -9.6 0.0
00 15.01 ЮВ 1 4000 м 9/8 300 м
[Cb cap Ac trans]
-13.0 -14.3 90 -15 -15 991.5 974.2
06 15.01 С 1 1000 м слаб. ливневой снег {туман} 10/8 300 м
[Cb cap Ac As]
-14.4 -15.8 89 -17 -17 992.5 975.1 -14.4 0.0 47
09 15.01 С 1 1000 м слаб. ливневой снег {туман} 10/8 300 м
[Cb cap Ac As]
-14.4 -15.8 89 -17 -17 992.5 975.1 -14.4 0.0
12 15.01 С 1 20 км {ливн. осадки} 8/3 600 м
[Sc Ac trans Ci fib]
-22.1 -24.2 83 -25 -25 993.8 975.9
15 15.01 С 1 20 км {ливн. осадки} 8/3 600 м
[Sc Ac trans Ci fib]
-22.1 -24.2 83 -25 -25 993.8 975.9
18 15.01 штиль 0 4000 м слаб. ливневой снег 9/5 300 м
[Cb cap Ci fib]
-21.1 -23.2 83 -21 -21 994.3 976.4 -14.4 0.0
00 16.01 С 1 4000 м слаб. ливневой снег 9/5 300 м
[Cb cap Ci fib]
-19.6 -21.5 85 -23 -23 994.9 977.1
06 16.01 С 3 4000 м слаб. ливневой снег 10/8 300 м
[Cb cap Ac As]
-16.4 -18.1 87 -23 -23 994.5 977.0 -21.2 0.6 48
12 16.01 С 2 2000 м слаб. ливневой снег 10/10 300 м
[Cb cap]
-13.6 -14.9 90 -18 -18 994.1 976.8
18 16.01 С 2 4000 м слаб. ливневой снег 10/8 200 м
[Cb cap Ac As]
-11.1 -12.1 92 -16 -16 993.0 975.8 -11.0 3

 

Местоположение метеостанции Апатиты (Мурманская область, Россия): широта 67.55 долгота 33.35 высота над уровнем моря 134 м.

В архиве по умолчанию представлена погода в Апатитах за последнюю неделю. Архивные данные за месяц целиком и за предыдущие месяцы, начиная с января 2011 года, Вы можете получить, выбрав интересующий диапазон дат из раскрывающегося списка и нажав кнопку "Ввод!".


*Определитесь, кто Вы:
робот инопланетянин человек

Внимание! Время в таблицах - всемирное. Для получения местного времени необходимо прибавить поправку, которая равна 3 ч.

Смотрите также архив погоды в соседних городах и на ближайших метеорологических станциях:

Погода в Кировске (Мурманская область, Россия) (16 км)
Погода в Зашейке (Мурманская область, Россия) (38 км)
Погода в Умбозере (Мурманская область, Россия) (41 км)
Погода в Мончегорске (Мурманская область, Россия) (46 км)
Погода в Порту Кандалакша (Мурманская область, Россия) (61 км)
Погода в Кандалакше (Мурманская область, Россия) (62 км)
Погода в Порту Витино (Мурманская область, Россия) (68 км)
Погода в Ловозере (Мурманская область, Россия) (87 км)
Погода в Пулозере (Мурманская область, Россия) (89 км)
Погода в Ковде (Мурманская область, Россия) (97 км)

Пояснения к столбцам:

Ветер - указаны скорость ветра в м/с - средняя за 10 мин, порывы в срок и между сроками (в фигурных скобках) и направление, откуда дует ветер: С - северный, СВ - северо-восточный, В - восточный, ЮВ - юго-восточный, Ю - южный, ЮЗ - юго-западный, З - западный, СЗ - северо-западный.
Видимость - горизонтальная дальность видимости в метрах или километрах. При видимости от 1 до 10 км при отсутствии осадков обычно наблюдается дымка, при ухудшении видимости до 1 км и менее - туман. В сухую погоду видимость может ухудшаться дымом, пылью или мглою.
Явления - указаны атмосферные явления, наблюдавшиеся в срок или в последний час перед сроком; фигурными скобками обозначены явления, наблюдавшиеся между сроками (за 1-3 часа до срока); квадратными скобками обозначены град или гололедные отложения с указанием их диаметра в мм.
Облачность - указаны через наклонную черту общая и нижняя облачность в баллах и высота нижней границы облаков в метрах; квадратными скобками обозначены формы облаков: Ci - перистые, Cs - перисто-слоистые, Cc - перисто-кучевые, Ac - высококучевые, As - высокослоистые, Sc - слоисто-кучевые, Ns - слоисто-дождевые, Cu - кучевые, Cb - кучево-дождевые. Подробнее классификацию облаков см. в Атласе облаков (PDF).
T - Температура воздуха - температура, измеренная на высоте 2 м над землей.
Td - Температура точки росы - температура, при понижении до которой содержащийся в воздухе водяной пар достигнет насыщения.
f - Относительная влажность воздуха - влажноcть воздуха, измеренная на высоте 2 м над землей.
Te - Эффективная температура - температура, которую ощущает одетый по сезону человек в тени. Характеристика душности погоды. При расчете учитывается влияние влажности воздуха и скорости ветра на теплоощущения человека.
Tes - Эффективная температура на солнце - температура, которую ощущает человек, с поправкой на солнечный нагрев. Характеристика знойности погоды. Зависит от высоты солнца над горизонтом, облачности и скорости ветра. Ночью, в пасмурную погоду, а также при ветре 12 м/с и более поправка равна нулю.
P - Атмосферное давление - приведенное к уровню моря атмосферное давление.
Po - Атмосферное давление - измеренное на уровне метеостанции атмосферное давление.
Tmin - Минимальная температура - минимум температуры воздуха на высоте 2 м над землей.
Tmax - Максимальная температура - максимум температуры воздуха на высоте 2 м над землей.
R - Количество осадков - Количество выпавших осадков за период времени, мм. При наведении курсора мыши на число - период времени, за который выпало указанное количество осадков.
R24 - Количество осадков - Количество выпавших осадков за 24 часа, мм.
S - Снежный покров - Высота снежного покрова, см. При наведении курсора мыши на число - состояние снежного покрова и степень покрытия местности в баллах.